Terminal Aerodrome Forecast
Issued by NWS Houston/Galveston, TX

Home | Current Version | Previous Version | Text Only | Print | Product List | Glossary On
Versions: 1 2 3 4 5 6 7 8 9 10 11 12 13 14 15 16 17 18 19 20 21 22 23 24 25 26 27 28 29 30 31 32 33
000
FTUS44 KHGX 240529
TAFGLS
TAF
KGLS 240529Z 2406/2506 00000KT P6SM VCTS SCT050CB
      TEMPO 2406/2407 03015G25KT 4SM TSRA BKN030CB
     FM240800 07007KT P6SM SCT030 SCT250
     FM241800 VRB03KT P6SM SCT060 SCT250=

USA.gov is the U.S. government's official web portal to all federal, state and local government web resources and services.